Weather Service Report


575 
ASUS46 KSTO 180115
RWRCA 

NORTHERN AND CENTRAL CA REGIONAL WEATHER ROUNDUP
NATIONAL WEATHER SERVICE SACRAMENTO CA 
500 PM PST TUE JAN 17 2017

NOTE: FAIR INDICATES FEW OR NO CLOUDS BELOW 12,000 FEET WITH NO
SIGNIFICANT WEATHER AND/OR OBSTRUCTIONS TO VISIBILITY.

CAZ001-003-180200-
NORTHWEST AREA
  
CITY           SKY/WX    TMP DP  RH WIND       PRES   REMARKS
CRESCENT CITY  RAIN      49  45  86 S16       29.90F FOG              
UKIAH          CLOUDY    49  43  80 SE6       30.10R                  
$$

CAZ006-505>513-180200-
BAY AREA
  
CITY           SKY/WX    TMP DP  RH WIND       PRES   REMARKS
SANTA ROSA     CLOUDY    48  42  80 S3        30.11S                  
SAN RAFAEL     N/A       47  MM  MM MISG
NAPA           CLOUDY    47  41  80 E10       30.13S                  
CONCORD        MOCLDY    46  39  76 NE6       30.14R HAZE             
OAKLAND CITY   N/A       53  MM  MM MISG
OAKLAND        MOCLDY    51  44  77 NW7       30.12S                  
SAN FRAN CITY  N/A       49  MM  70 MISG
SAN FRAN ARPT  MOCLDY    51  42  71 N5        30.12S                  
LIVERMORE      MOCLDY    46  39  76 W3        30.12R                  
HAYWARD        MOCLDY    51  41  68 W3        30.12R                  
REDWOOD CITY   N/A       51  MM  69 MISG
MOFFETT ARPT   MOCLDY    51  41  68 CALM      30.13R                  
SAN JOSE ARPT  MOCLDY    51  42  71 NW8       30.12R                  
$$
CAZ034-037-514>518-180200-
CENTRAL COAST
  
CITY           SKY/WX    TMP DP  RH WIND       PRES   REMARKS
WATSONVILLE    MOCLDY    51  47  86 W6        30.13R                  
SALINAS        MOCLDY    55  46  71 W10       30.11R                  
MONTEREY       MOCLDY    53  48  83 SW9       30.12R                  
SAN LUIS OBISP PTCLDY    61  44  53 W5        30.10S                  
SANTA MARIA    MOCLDY    55  50  83 W5        30.11S                  
$$
CAZ015-016-180200-
NORTHERN SACRAMENTO VALLEY
  
CITY           SKY/WX    TMP DP  RH WIND       PRES   REMARKS
REDDING        CLOUDY    47  41  80 SE6       30.12R HAZE             
RED BLUFF      CLOUDY    46  41  82 CALM      30.14R                  
OROVILLE       CLOUDY    46  42  86 CALM      30.15R FOG              
$$
CAZ016>018-180200-
SOUTHERN SACRAMENTO VALLEY
  
CITY           SKY/WX    TMP DP  RH WIND       PRES   REMARKS
AUBURN         MOCLDY    45  43  93 NW3       30.12R                  
BEALE AFB      CLOUDY    43  43 100 CALM      30.14R FOG              
LINCOLN        CLOUDY    43  39  87 CALM      30.15R                  
MARYSVILLE     CLOUDY    43  39  86 CALM      30.16R FOG              
SAC INTL ARPT  CLOUDY    43  42  97 CALM      30.15R FOG              
MATHER AIRPORT MOCLDY    45  41  87 NW8       30.15R                  
DOWNTOWN SAC   N/A       43  MM  MM MISG
SAC EXEC ARPT  CLOUDY    42  41  96 N7        30.15S FOG              
VACAVILLE      CLOUDY    44  41  89 E3        30.15S FOG              
TRAVIS AFB     MOCLDY    42  41  97 CALM      30.13S FOG              
$$
CAZ019>021-180200-
SAN JOAQUIN VALLEY
  
CITY           SKY/WX    TMP DP  RH WIND       PRES   REMARKS
STOCKTON       MOCLDY    46  42  86 NW5       30.13R FOG              
MODESTO        PTCLDY    48  40  73 CALM      30.13R                  
MERCED         PTCLDY    48  41  76 W3        30.12S HAZE             
LEMOORE        CLOUDY    50  44  80 NW3       30.12F HAZE             
FRESNO         CLOUDY    53  41  63 NW5       30.12S HAZE             
HANFORD        MOCLDY    52  45  77 W5        30.12S HAZE             
PORTERVILLE    MOCLDY    52  46  80 W5        30.13R                  
BAKERSFIELD    MOCLDY    56  41  57 W6        30.12R                  
$$
CAZ011-012-071-180200-
NORTHERN MOUNTAINS
  
CITY           SKY/WX    TMP DP  RH WIND       PRES   REMARKS
YREKA          CLOUDY    38  32  79 SW3       29.98R                  
MOUNT SHASTA   CLOUDY    44  21  40 E12G18    30.04S                  
ALTURAS        MOCLDY    35  25  66 S6        30.01S WCI  30          
$$
CAZ011-012-071-180200-
SIERRA NEVADA MTNS
  
CITY           SKY/WX    TMP DP  RH WIND       PRES   REMARKS
BLUE CANYON    MOCLDY    42  22  44 SE5       30.12R                  
TRUCKEE        CLOUDY    28  27  93 E5        30.10F WCI  23          
TAHOE VLY ARPT PTCLDY    34  32  92 CALM      30.10F                  
MAMMOTH LAKES  FAIR      22  13  70 CALM      30.16R                  
$$
  

Return to Home page


Western Regional Climate Center, wrcc@dri.edu